Weather History for Winchester, TN

Change the Weather History Date:

Monday, March 25, 2013

  Actual Average (KTHA) Record (KTHA)
Temperature  
Mean Temperature 34 °F -  
Max Temperature 37 °F 61 °F 41 °F (2014)
Min Temperature 30 °F 39 °F 21 °F (2014)
Degree Days  
Heating Degree Days 32    
Moisture  
Dew Point 23 °F    
Average Humidity 68    
Maximum Humidity 86    
Minimum Humidity 56    
Precipitation  
Precipitation 0.00 in - - ()
Sea Level Pressure  
Sea Level Pressure 29.92 in    
Wind  
Wind Speed 14 mph (West)    
Max Wind Speed 21 mph    
Max Gust Speed 33 mph    
Visibility 10 miles    
Events      
Averages and records for this station are not official NWS values.
T = Trace of Precipitation, MM = Missing Value Source: NWS Daily Summary

Daily Weather History Graph

Daily Weather History Graph

Search for Another Location

Airport:

Trip Planner

Search our weather history database for the weather conditions in past years. The results will help you decide how hot, cold, wet, or windy it might be!

Date:

Astronomy

Mar. 25, 2013 Rise Set
Actual Time 7:40 AM EDT 8:00 PM EDT
Civil Twilight 7:15 AM EDT 8:25 PM EDT
Nautical Twilight 6:45 AM EDT 8:55 PM EDT
Astronomical Twilight 6:15 AM EDT 9:25 PM EDT
Moon 6:33 PM EDT (3/25) 6:20 AM EDT (3/25)
Length of Visible Light 13h 10m
Length of Day
12h 19m
Waxing Gibbous, 96% of the Moon is Illuminated
Mar 25
Waxing Gibbous
Mar 27
Full
Apr 3
Last Quarter
Apr 10
New
Apr 18
First Quarter

Hourly Weather History & Observations

Time (EDT) Temp. Windchill Dew Point Humidity Pressure Visibility Wind Dir Wind Speed Gust Speed Precip Events Conditions
12:15 AM 37.4 °F 27.8 °F 23.0 °F 56% 29.75 in 10.0 mi West 17.3 mph - N/A   Overcast
12:35 AM 35.6 °F 24.5 °F 23.0 °F 60% 29.75 in 10.0 mi West 20.7 mph 33.4 mph N/A   Overcast
12:55 AM 35.6 °F 26.6 °F 24.8 °F 65% 29.75 in 10.0 mi West 13.8 mph - N/A   Overcast
1:35 AM 35.6 °F 25.5 °F 23.0 °F 60% 29.76 in 10.0 mi WNW 17.3 mph - N/A   Overcast
1:55 AM 35.6 °F 25.9 °F 23.0 °F 60% 29.77 in 10.0 mi West 16.1 mph - N/A   Overcast
2:15 AM 35.6 °F 27.1 °F 24.8 °F 65% 29.78 in 10.0 mi West 12.7 mph - N/A   Overcast
2:35 AM 35.6 °F 25.5 °F 24.8 °F 65% 29.78 in 10.0 mi West 17.3 mph - N/A   Overcast
2:55 AM 35.6 °F 27.1 °F 23.0 °F 60% 29.78 in 10.0 mi West 12.7 mph - N/A   Overcast
3:15 AM 35.6 °F 26.6 °F 23.0 °F 60% 29.78 in 10.0 mi West 13.8 mph - N/A   Overcast
3:35 AM 33.8 °F 25.8 °F 23.0 °F 65% 29.78 in 10.0 mi West 10.4 mph - N/A   Overcast
3:55 AM 33.8 °F 23.5 °F 23.0 °F 65% 29.78 in 10.0 mi West 16.1 mph - N/A   Overcast
4:15 AM 33.8 °F 24.3 °F 23.0 °F 65% 29.78 in 10.0 mi West 13.8 mph - N/A   Overcast
4:35 AM 33.8 °F 24.8 °F 23.0 °F 65% 29.78 in 10.0 mi West 12.7 mph 21.9 mph N/A   Overcast
4:55 AM 33.8 °F 25.3 °F 23.0 °F 65% 29.79 in 10.0 mi West 11.5 mph 27.6 mph N/A   Overcast
5:15 AM 33.8 °F 26.4 °F 23.0 °F 65% 29.79 in 10.0 mi West 9.2 mph - N/A   Overcast
5:35 AM 33.8 °F 22.8 °F 23.0 °F 65% 29.79 in 10.0 mi West 18.4 mph - N/A   Overcast
5:55 AM 33.8 °F 23.2 °F 21.2 °F 60% 29.80 in 10.0 mi West 17.3 mph - N/A   Overcast
6:15 AM 33.8 °F 24.8 °F 23.0 °F 65% 29.81 in 10.0 mi West 12.7 mph - N/A   Overcast
6:35 AM 33.8 °F 24.8 °F 23.0 °F 65% 29.81 in 10.0 mi WNW 12.7 mph - N/A   Overcast
6:55 AM 33.8 °F 24.8 °F 23.0 °F 65% 29.82 in 10.0 mi West 12.7 mph - N/A   Overcast
7:15 AM 32.0 °F 22.1 °F 23.0 °F 69% 29.82 in 10.0 mi West 13.8 mph - N/A   Overcast
7:35 AM 32.0 °F 24.2 °F 23.0 °F 69% 29.82 in 10.0 mi West 9.2 mph - N/A   Overcast
7:55 AM 32.0 °F 23.6 °F 23.0 °F 69% 29.83 in 10.0 mi West 10.4 mph - N/A   Overcast
8:15 AM 32.0 °F 21.6 °F 23.0 °F 69% 29.83 in 10.0 mi West 15.0 mph - N/A   Overcast
8:35 AM 32.0 °F 22.5 °F 24.8 °F 75% 29.84 in 10.0 mi West 12.7 mph - N/A   Overcast
8:55 AM 30.2 °F 22.6 °F 24.8 °F 80% 29.86 in 10.0 mi West 8.1 mph - N/A   Overcast
9:15 AM 30.2 °F 21.9 °F 24.8 °F 80% 29.87 in 6.0 mi West 9.2 mph - N/A   Overcast
9:35 AM 30.2 °F 22.6 °F 24.8 °F 80% 29.88 in 9.0 mi West 8.1 mph - N/A   Overcast
9:55 AM 32.0 °F 21.6 °F 24.8 °F 75% 29.89 in 8.0 mi WNW 15.0 mph - N/A   Overcast
10:15 AM 32.0 °F 23.6 °F 24.8 °F 75% 29.90 in 8.0 mi West 10.4 mph - N/A   Overcast
10:35 AM 32.0 °F 23.0 °F 24.8 °F 75% 29.91 in 10.0 mi West 11.5 mph - N/A   Overcast
10:55 AM 33.8 °F 24.8 °F 23.0 °F 65% 29.91 in 10.0 mi West 12.7 mph - N/A   Overcast
11:15 AM 33.8 °F 23.9 °F 23.0 °F 65% 29.92 in 10.0 mi West 15.0 mph - N/A   Overcast
11:35 AM 33.8 °F 25.3 °F 23.0 °F 65% 29.93 in 10.0 mi West 11.5 mph - N/A   Overcast
11:55 AM 33.8 °F 23.9 °F 23.0 °F 65% 29.93 in 10.0 mi WNW 15.0 mph - N/A   Overcast
12:15 PM 32.0 °F 23.0 °F 23.0 °F 69% 29.94 in 10.0 mi West 11.5 mph - N/A   Overcast
12:35 PM 32.0 °F 21.6 °F 23.0 °F 69% 29.95 in 10.0 mi West 15.0 mph - N/A   Overcast
12:55 PM 33.8 °F 23.9 °F 23.0 °F 65% 29.95 in 10.0 mi West 15.0 mph - N/A   Overcast
1:15 PM 33.8 °F 25.3 °F 23.0 °F 65% 29.94 in 10.0 mi West 11.5 mph - N/A   Overcast
1:35 PM 33.8 °F 23.9 °F 23.0 °F 65% 29.95 in 10.0 mi West 15.0 mph - N/A   Overcast
1:55 PM 33.8 °F 23.5 °F 21.2 °F 60% 29.95 in 10.0 mi West 16.1 mph - N/A   Overcast
2:15 PM 33.8 °F 23.5 °F 21.2 °F 60% 29.95 in 10.0 mi West 16.1 mph - N/A   Overcast
2:35 PM 33.8 °F 23.9 °F 21.2 °F 60% 29.95 in 10.0 mi West 15.0 mph - N/A   Overcast
2:55 PM 33.8 °F 23.9 °F 21.2 °F 60% 29.96 in 10.0 mi WNW 15.0 mph - N/A   Overcast
3:15 PM 33.8 °F 24.3 °F 21.2 °F 60% 29.96 in 10.0 mi West 13.8 mph - N/A   Overcast
3:35 PM 33.8 °F 25.3 °F 21.2 °F 60% 29.97 in 10.0 mi WNW 11.5 mph - N/A   Overcast
3:55 PM 33.8 °F 25.8 °F 21.2 °F 60% 29.97 in 10.0 mi West 10.4 mph - N/A   Overcast
4:15 PM 33.8 °F 23.5 °F 21.2 °F 60% 29.97 in 10.0 mi WNW 16.1 mph - N/A   Overcast
4:35 PM 33.8 °F 24.3 °F 21.2 °F 60% 29.98 in 10.0 mi West 13.8 mph - N/A   Overcast
4:55 PM 33.8 °F 24.8 °F 21.2 °F 60% 29.99 in 10.0 mi West 12.7 mph - N/A   Overcast
5:15 PM 33.8 °F 24.8 °F 21.2 °F 60% 29.99 in 10.0 mi West 12.7 mph - N/A   Overcast
5:35 PM 33.8 °F 24.8 °F 23.0 °F 65% 30.00 in 10.0 mi West 12.7 mph - N/A   Overcast
5:55 PM 33.8 °F 24.8 °F 23.0 °F 65% 30.01 in 10.0 mi West 12.7 mph - N/A   Overcast
6:15 PM 33.8 °F 23.9 °F 23.0 °F 65% 30.02 in 10.0 mi West 15.0 mph - N/A   Overcast
6:35 PM 33.8 °F 24.8 °F 23.0 °F 65% 30.02 in 10.0 mi WNW 12.7 mph - N/A   Overcast
6:55 PM 33.8 °F 25.3 °F 24.8 °F 70% 30.03 in 10.0 mi NW 11.5 mph - N/A   Overcast
7:15 PM 33.8 °F 24.8 °F 24.8 °F 70% 30.04 in 10.0 mi West 12.7 mph - N/A   Overcast
7:35 PM 32.0 °F 24.8 °F 24.8 °F 75% 30.05 in 10.0 mi WNW 8.1 mph - N/A   Overcast
7:55 PM 32.0 °F 24.2 °F 24.8 °F 75% 30.05 in 8.0 mi WNW 9.2 mph - N/A   Overcast
8:15 PM 32.0 °F 24.2 °F 26.6 °F 80% 30.06 in 9.0 mi WNW 9.2 mph - N/A   Overcast
8:35 PM 30.2 °F 22.6 °F 26.6 °F 86% 30.07 in 8.0 mi West 8.1 mph - N/A   Overcast
8:55 PM 30.2 °F 21.9 °F 24.8 °F 80% 30.07 in 10.0 mi West 9.2 mph - N/A   Overcast
9:15 PM 32.0 °F 25.6 °F 24.8 °F 75% 30.08 in 10.0 mi West 6.9 mph - N/A   Overcast
9:35 PM 32.0 °F 25.6 °F 24.8 °F 75% 30.08 in 10.0 mi West 6.9 mph - N/A   Overcast
9:55 PM 32.0 °F 25.6 °F 24.8 °F 75% 30.09 in 10.0 mi West 6.9 mph - N/A   Overcast
10:15 PM 32.0 °F 26.4 °F 24.8 °F 75% 30.09 in 10.0 mi West 5.8 mph - N/A   Overcast
10:35 PM 30.2 °F 21.9 °F 24.8 °F 80% 30.10 in 10.0 mi West 9.2 mph - N/A   Overcast
10:55 PM 32.0 °F 24.2 °F 24.8 °F 75% 30.10 in 10.0 mi West 9.2 mph - N/A   Overcast
11:15 PM 32.0 °F 24.8 °F 24.8 °F 75% 30.10 in 10.0 mi West 8.1 mph - N/A   Overcast
11:35 PM 30.2 °F 23.4 °F 24.8 °F 80% 30.11 in 10.0 mi West 6.9 mph - N/A   Overcast
11:55 PM 32.0 °F 23.6 °F 26.6 °F 80% 30.11 in 10.0 mi West 10.4 mph - N/A   Overcast